Regional Weather Roundup
Issued by NWS

Home | Current Version | Previous Version | Graphics & Text | Print | Product List | Glossary On
Versions: 1 2 3 4 5 6 7 8 9 10 11 12 13 14 15 16 17 18 19 20 21 22 23 24 25 26 27 28 29 30 31 32 33 34 35 36 37 38 39 40 41 42 43 44 45 46 47 48 49 50
000
ASUS43 KMPX 260801
RWRMN
WEATHER ROUNDUP FOR MINNESOTA
NATIONAL WEATHER SERVICE TWIN CITIES/CHANHASSEN MN
200 AM CST SUN FEB 26 2017


NOTE: "FAIR" INDICATES FEW OR NO CLOUDS BELOW 12,000 FEET WITH NO
SIGNIFICANT WEATHER AND/OR OBSTRUCTIONS TO VISIBILITY. N/A MEANS
CURRENT SKY AND/OR WEATHER CONDITIONS ARE NOT AVAILABLE.

MNZ060>063-068>070-260900-
   Twin Cities Metro

CITY           SKY/WX    TMP DP  RH WIND       PRES   REMARKS
TWIN CITIES    MOCLDY    25  15  66 SW10      29.77F WCI  15
ST PAUL        CLOUDY    26  16  65 S7        29.79F WCI  18
CRYSTAL        CLOUDY    25  14  63 S9        29.75F WCI  15
BLAINE         PTCLDY    27  18  69 S9        29.75F WCI  17
LAKEVILLE      PTCLDY    23  18  80 S7G17     29.77F WCI  15
EDEN PRAIRIE   MOCLDY    24  16  71 S8        29.76F WCI  15
SOUTH ST PAUL  PTCLDY    25  16  69 S7        29.78F WCI  17
LAKE ELMO      MOCLDY    27  19  74 S8        29.78F WCI  18
$$
MNZ001>005-007-008-013>017-022>024-027-028-260900-
   Northwest Minnesota

CITY           SKY/WX    TMP DP  RH WIND       PRES   REMARKS
BEMIDJI        CLOUDY    17  15  93 N3        29.65S
HALLOCK        MOCLDY    12   7  79 NW6       29.74R WCI   3
ROSEAU         FLURRIES  12   9  85 NW5       29.71R WCI   4
WARROAD        PTCLDY    10   5  79 NW6       29.70R WCI   1
THIEF RVR FALL LGT SNOW  13  10  88 N7        29.72S FOG     WCI   3
CROOKSTON      LGT SNOW  14  12  92 N13       29.74S WCI   0
FOSSTON        CLOUDY    16  12  86 N9        29.67S WCI   4
DETROIT LAKES  CLOUDY    21  21 100 SW3       29.66F
MOORHEAD       MOCLDY    25  21  86 S3        29.68F
PARK RAPIDS    MOCLDY    21  16  81 S5        29.64S HAZE    WCI  15
MAHNOMEN       PTSUNNY   18  16  91 CALM      29.65F
$$
MNZ006-009>011-018-025>026-260900-
   North Central Minnesota

CITY           SKY/WX    TMP DP  RH WIND       PRES   REMARKS
BAUDETTE       CLOUDY    12   7  80 NW10      29.67R WCI  -1
FLAG ISLAND    CLEAR      9   1  72 NW10      29.68S WCI  -6
INTL FALLS     CLOUDY    13   7  77 W5        29.66S WCI   5
WASKISH        LGT SNOW  12  10  92 W3        29.68S
BIG FORK       MOCLDY    12  10  92 CALM      29.66S
LONGVILLE      CLOUDY    25  23  93 SW3       29.66S
GRAND RAPIDS   FLURRIES  24  21  88 NW8       29.66F WCI  15
CRANE LAKE     MOCLDY     9   9 100 CALM      29.68F
ORR            PTCLDY    12   9  85 CALM      29.63F
COOK           CLOUDY    19  14  79 W3        29.66S
WALKER         CLOUDY    21  17  84 CALM      29.65S
$$
MNZ012-019>021-037-260900-
   Northeast Minnesota

CITY           SKY/WX    TMP DP  RH WIND       PRES   REMARKS
DULUTH         LGT SNOW  26  23  88 SW9       29.64F VSB 1   WCI  17
ELY            FLURRIES  19  18  93 CALM      29.64S
HIBBING        LGT SNOW  21  20  96 CALM      29.64F FOG
EVELETH        MIX PCPN  22  20  91 CALM      29.65F
DULUTH HARBOR  LGT SNOW  28  27  93 SW9       29.70F WCI  20
TWO HARBORS    LGT SNOW  27  21  80 CALM      29.65S VSB 3/4
SILVER BAY     DRIZZLE   19  18  93 CALM      29.64F
GRAND MARAIS     N/A     26  20  77 VRB5      29.69F WCI  20
G MARAIS ARPRT CLOUDY    16  10  79 CALM      29.62S
$$
MNZ029>031-032-039>041-046>048-054>057-064-260900-
   West Central Minnesota

CITY           SKY/WX    TMP DP  RH WIND       PRES   REMARKS
FERGUS FALLS   FOG       18  18 100 CALM      29.73F VSB<1/4
WHEATON        CLOUDY    23  21  93 S3        29.72S FOG
MORRIS         PTCLDY    27  25  93 CALM      29.68F
ALEXANDRIA     CLOUDY    27  24  89 W5        29.67F WCI  22
ELBOW LAKE     SNOW      22  22  99 CALM      29.69F VSB 1/4
WADENA         FOG       19  19 100 CALM      29.66F VSB 3/4
GLENWOOD       CLOUDY    27  25  93 SW10      29.68F WCI  17
APPLETON       CLEAR     25  21  86 S5        29.70F WCI  19
BENSON         CLOUDY    27  19  74 SW5       29.72S WCI  21
ORTONVILLE     CLEAR     25  21  86 CALM      29.70S
MADISON        CLEAR     28  25  86 SW6       29.71F WCI  22
WILLMAR        FAIR      27  23  86 SW7       29.73S WCI  19
$$
MNZ033>034-036-042>043-049>051-058-059-260900-
   Central Minnesota

CITY           SKY/WX    TMP DP  RH WIND       PRES   REMARKS
ST CLOUD       CLOUDY    26  21  81 SW12      29.71F WCI  16
SAUK CENTRE    CLOUDY    28  22  81 SW9       29.68F WCI  19
PAYNESVILLE    CLOUDY    26  22  84 SW7       29.71F WCI  19
AITKIN         LGT SNOW  28  23  80 CALM      29.65F
PINE RIVER     FOG       21  21 100 CALM      29.70S VSB 1/2
BRAINERD       LGT SNOW  25  23  92 CALM      29.67S FOG
STAPLES        FOG       14  12  92 CALM      29.67S VSB 1/4
LONG PRAIRIE   CLOUDY    28  23  80 S9        29.67F WCI  20
LITTLE FALLS   CLOUDY    28  21  74 SW10      29.69S WCI  19
LITCHFIELD     CLOUDY    25  21  86 CALM      29.73S
BUFFALO        CLOUDY    25  19  76 S8        29.74F WCI  16
MAPLE LAKE     CLOUDY    26  21  83 S6        29.73F WCI  19
HUTCHINSON     PTCLDY    25  21  85 S9        29.74F WCI  16
$$
MNZ037-044-045-052-053-260900-
   East Central Minnesota

CITY           SKY/WX    TMP DP  RH WIND       PRES   REMARKS
PRINCETON      LGT SNOW  27  21  80 S8        29.72F WCI  18
MORA           FLURRIES  27  23  86 SW10      29.72F WCI  17
CAMBRIDGE      FLURRIES  27  18  69 SW9G16    29.71F WCI  17
RUSH CITY      CLOUDY    25  18  74 S9        29.73F WCI  15
MOOSE LAKE     LGT SNOW  27  23  86 SW6       29.67S WCI  20
HINCKLEY       LGT SNOW  28  23  80 S13       29.71F WCI  18
CLOQUET        LGT SNOW  25  23  93 SW6       29.65F WCI  18
MCGREGOR       CLOUDY    27  25  93 SW3       29.67S
$$
MNZ071>073-080-081-089-090-097-098-260900-
   Southwest Minnesota

CITY           SKY/WX    TMP DP  RH WIND       PRES   REMARKS
MONTEVIDEO     CLEAR     25  21  86 W6        29.73F WCI  18
GRANITE FALLS  PTCLDY    27  23  84 SW10      29.74S WCI  18
CANBY          CLEAR     27  23  85 SW9       29.73S WCI  17
MARSHALL       PTCLDY    25  20  81 SW13      29.73F WCI  14
REDWOOD FALLS  CLOUDY    27  19  72 SW9       29.74S WCI  18
OLIVIA         MOCLDY    28  23  80 SW8       29.72F WCI  20
PIPESTONE      CLEAR     19  14  79 W6        29.73S WCI  11
WINDOM         PTCLDY    23  19  86 SW10      29.74F WCI  12
WORTHINGTON    CLEAR     20  16  84 SW13      29.75F WCI   7
JACKSON        PTCLDY    19  16  86 SW8       29.76F WCI   9
TRACY          PTCLDY    25  21  85 SW15      29.73S WCI  13
SLAYTON        PTCLDY    20  18  91 SW7       29.73S WCI  11
$$
MNZ065>067-074>077-082>085-091>093-260900-
   South Central Minnesota

CITY           SKY/WX    TMP DP  RH WIND       PRES   REMARKS
MANKATO          N/A     20  16  84 S9        29.78F WCI   9
NEW ULM        CLOUDY    25  18  74 SW8       29.76S WCI  16
ST JAMES       CLOUDY    21  18  86 S9        29.78F WCI  11
FAIRMONT       PTCLDY    19  15  84 S12       29.79F WCI   7
GLENCOE        CLOUDY    25  21  86 S8        29.74F WCI  16
FARIBAULT      PTCLDY    23  18  80 S7        29.79F WCI  15
OWATONNA       CLEAR     21  16  79 S12       29.79F WCI   9
WASECA         PTCLDY    23  18  80 S14       29.80F WCI  11
ALBERT LEA     PTCLDY    27  19  74 S10       29.79F WCI  17
$$
MNZ078>079-086>088-094>096-260900-
   Southeast Minnesota

CITY           SKY/WX    TMP DP  RH WIND       PRES   REMARKS
ROCHESTER      CLOUDY    23  18  81 S15       29.80F WCI  10
RED WING       CLOUDY    27  16  63 SW7       29.80F WCI  19
STANTON        CLEAR     23  16  74 S10       29.78F WCI  12
WINONA         CLOUDY    28  19  69 S3        29.86F
AUSTIN         CLOUDY    25  18  74 S15       29.81F WCI  12
PRESTON        CLOUDY    24  17  75 S15       29.83F WCI  11
$$
ABBREVIATIONS USED IN REMARKS
   TC - TEMPERATURES IN CELSIUS
  WCI - WIND CHILL INDEX
   HX - HEAT INDEX
  VSB - VISIBILITY
$$




USA.gov is the U.S. government's official web portal to all federal, state and local government web resources and services.